| time (UTC) | temp C | wind direction | speed KPH | gust KPH | rain 1hr cm | rain 24hr cm | rain mn cm | humidity % | barometer mb |
| 20260903060057 | 25 | 150 | 1.6 | 4.8 | 0.00 | 0.00 | 0.00 | 85 | 1017.1 |
| 20260903055017 | 25 | 171 | 3.2 | 4.8 | 0.00 | 0.00 | 0.00 | 85 | 1017.1 |
| 20260903054017 | 25 | 177 | 3.2 | 4.8 | 0.00 | 0.00 | 0.00 | 85 | 1017.1 |
| 20260903053017 | 25 | 170 | 3.2 | 4.8 | 0.00 | 0.00 | 0.00 | 85 | 1017.1 |
| 20260903052017 | 25 | 172 | 3.2 | 4.8 | 0.00 | 0.00 | 0.00 | 85 | 1017.0 |
| 20260903051038 | 25 | 168 | 3.2 | 4.8 | 0.00 | 0.00 | 0.00 | 84 | 1017.0 |
| 20260903050038 | 25 | 175 | 3.2 | 6.4 | 0.00 | 0.00 | 0.00 | 84 | 1016.9 |
| 20260903045018 | 25 | 172 | 1.6 | 4.8 | 0.00 | 0.00 | 0.00 | 84 | 1016.8 |
| 20260903044018 | 25 | 186 | 1.6 | 4.8 | 0.00 | 0.00 | 0.00 | 84 | 1016.8 |
| 20260903043055 | 25 | 173 | 3.2 | 4.8 | 0.00 | 0.00 | 0.00 | 83 | 1016.7 |
| 20260903042016 | 25 | 176 | 1.6 | 4.8 | 0.00 | 0.00 | 0.00 | 83 | 1016.7 |
| 20260903041016 | 25 | 184 | 3.2 | 6.4 | 0.00 | 0.00 | 0.00 | 83 | 1016.6 |
| 20260903040019 | 25 | 181 | 3.2 | 6.4 | 0.00 | 0.00 | 0.00 | 83 | 1016.5 |
| 20260903035016 | 26 | 175 | 4.8 | 6.4 | 0.00 | 0.00 | 0.00 | 82 | 1016.3 |
| 20260903034016 | 26 | 170 | 3.2 | 6.4 | 0.00 | 0.00 | 0.00 | 82 | 1016.3 |
| 20260903033017 | 26 | 176 | 4.8 | 8.0 | 0.00 | 0.00 | 0.00 | 82 | 1016.5 |
| 20260903032016 | 26 | 175 | 4.8 | 8.0 | 0.00 | 0.00 | 0.00 | 82 | 1016.6 |
| 20260903031016 | 26 | 177 | 4.8 | 6.4 | 0.00 | 0.00 | 0.00 | 81 | 1016.7 |
| 20260903030037 | 26 | 177 | 3.2 | 8.0 | 0.00 | 0.00 | 0.00 | 81 | 1016.9 |
| 20260903025017 | 26 | 173 | 3.2 | 6.4 | 0.00 | 0.00 | 0.00 | 81 | 1017.0 |
| 20260903024037 | 26 | 176 | 3.2 | 6.4 | 0.00 | 0.00 | 0.00 | 81 | 1017.1 |
| 20260903023037 | 26 | 168 | 3.2 | 4.8 | 0.00 | 0.00 | 0.00 | 80 | 1017.2 |
| 20260903022018 | 26 | 175 | 3.2 | 6.4 | 0.00 | 0.00 | 0.00 | 80 | 1017.2 |
| 20260903021018 | 26 | 172 | 3.2 | 6.4 | 0.00 | 0.00 | 0.00 | 79 | 1017.2 |
| 20260903020018 | 26 | 174 | 3.2 | 6.4 | 0.00 | 0.00 | 0.00 | 79 | 1017.2 |
| 20260903015038 | 26 | 176 | 3.2 | 4.8 | 0.00 | 0.00 | 0.00 | 79 | 1017.2 |
| 20260903014018 | 27 | 178 | 3.2 | 6.4 | 0.00 | 0.00 | 0.00 | 78 | 1017.2 |
| 20260903013015 | 27 | 183 | 4.8 | 8.0 | 0.00 | 0.00 | 0.00 | 77 | 1017.1 |
| 20260903012015 | 27 | 179 | 4.8 | 9.7 | 0.00 | 0.00 | 0.00 | 77 | 1017.0 |
| 20260903011016 | 27 | 182 | 4.8 | 8.0 | 0.00 | 0.00 | 0.00 | 76 | 1017.0 |
| 20260903010016 | 27 | 178 | 4.8 | 8.0 | 0.00 | 0.00 | 0.00 | 76 | 1016.8 |
| 20260903005018 | 27 | 184 | 4.8 | 8.0 | 0.00 | 0.00 | 0.00 | 76 | 1016.8 |
| 20260903004016 | 27 | 177 | 4.8 | 8.0 | 0.00 | 0.00 | 0.00 | 76 | 1016.7 |
| 20260903003017 | 27 | 171 | 4.8 | 6.4 | 0.00 | 0.00 | 0.00 | 75 | 1016.7 |
| 20260903002017 | 27 | 175 | 3.2 | 6.4 | 0.00 | 0.00 | 0.00 | 74 | 1016.6 |
| 20260903001037 | 28 | 182 | 3.2 | 6.4 | 0.00 | 0.00 | 0.00 | 73 | 1016.6 |
| 20260903000017 | 28 | 186 | 3.2 | 4.8 | 0.00 | 0.00 | 0.00 | 71 | 1016.7 |
| 20260902235017 | 28 | 173 | 3.2 | 6.4 | 0.00 | 0.00 | 0.00 | 71 | 1016.6 |
| 20260902234018 | 29 | 182 | 3.2 | 6.4 | 0.00 | 0.00 | 0.00 | 69 | 1016.6 |
| 20260902233017 | 30 | 193 | 3.2 | 6.4 | 0.00 | 0.00 | 0.00 | 68 | 1016.6 |
| 20260902232018 | 30 | 194 | 3.2 | 6.4 | 0.00 | 0.03 | 0.00 | 68 | 1016.6 |
| 20260902231018 | 30 | 214 | 1.6 | 4.8 | 0.00 | 0.03 | 0.00 | 67 | 1016.6 |
| 20260902230018 | 31 | 199 | 3.2 | 9.7 | 0.00 | 0.03 | 0.00 | 66 | 1016.6 |
| 20260902225018 | 31 | 209 | 3.2 | 6.4 | 0.00 | 0.03 | 0.00 | 65 | 1016.6 |
| 20260902224015 | 31 | 203 | 4.8 | 8.0 | 0.00 | 0.03 | 0.00 | 65 | 1016.5 |
| 20260902223015 | 31 | 207 | 3.2 | 8.0 | 0.00 | 0.03 | 0.00 | 65 | 1016.6 |
| 20260902222016 | 32 | 220 | 3.2 | 9.7 | 0.00 | 0.03 | 0.00 | 64 | 1016.7 |
| 20260902221016 | 32 | 215 | 4.8 | 8.0 | 0.00 | 0.03 | 0.00 | 64 | 1016.7 |
| 20260902220016 | 32 | 208 | 4.8 | 9.7 | 0.00 | 0.03 | 0.00 | 63 | 1016.6 |
| 20260902215016 | 32 | 226 | 6.4 | 12.9 | 0.00 | 0.03 | 0.00 | 62 | 1016.7 |
| 20260902214036 | 32 | 214 | 6.4 | 12.9 | 0.00 | 0.03 | 0.00 | 62 | 1016.7 |
| 20260902213017 | 32 | 214 | 6.4 | 12.9 | 0.00 | 0.03 | 0.00 | 62 | 1016.6 |
| 20260902212037 | 32 | 243 | 4.8 | 16.1 | 0.00 | 0.03 | 0.00 | 63 | 1016.6 |
| 20260902211017 | 32 | 203 | 4.8 | 9.7 | 0.00 | 0.03 | 0.00 | 64 | 1016.8 |
| 20260902210017 | 32 | 211 | 4.8 | 8.0 | 0.00 | 0.03 | 0.00 | 63 | 1016.9 |
| 20260902205017 | 32 | 217 | 6.4 | 12.9 | 0.00 | 0.03 | 0.00 | 63 | 1017.0 |
| 20260902204017 | 32 | 220 | 4.8 | 9.7 | 0.00 | 0.03 | 0.00 | 65 | 1017.1 |
| 20260902203018 | 32 | 219 | 3.2 | 9.7 | 0.00 | 0.03 | 0.00 | 63 | 1017.2 |
| 20260902202039 | 32 | 208 | 6.4 | 12.9 | 0.00 | 0.03 | 0.00 | 61 | 1017.3 |
| 20260902201018 | 32 | 210 | 4.8 | 9.7 | 0.00 | 0.03 | 0.00 | 62 | 1017.4 |
| 20260902200018 | 32 | 212 | 6.4 | 14.5 | 0.00 | 0.03 | 0.00 | 62 | 1017.5 |
| 20260902195018 | 32 | 214 | 6.4 | 11.3 | 0.00 | 0.03 | 0.00 | 62 | 1017.5 |
| 20260902194035 | 32 | 262 | 4.8 | 12.9 | 0.00 | 0.03 | 0.00 | 62 | 1017.6 |
| 20260902193016 | 32 | 199 | 6.4 | 12.9 | 0.00 | 0.03 | 0.00 | 62 | 1017.8 |
| 20260902192015 | 32 | 203 | 6.4 | 11.3 | 0.00 | 0.03 | 0.00 | 63 | 1017.9 |
| 20260902191017 | 32 | 199 | 4.8 | 9.7 | 0.00 | 0.03 | 0.00 | 63 | 1018.0 |
| 20260902190018 | 32 | 198 | 8.0 | 11.3 | 0.00 | 0.03 | 0.00 | 64 | 1018.0 |
| 20260902185021 | 32 | 227 | 6.4 | 11.3 | 0.00 | 0.03 | 0.00 | 66 | 1018.1 |
| 20260902184020 | 32 | 207 | 4.8 | 9.7 | 0.00 | 0.03 | 0.00 | 66 | 1018.1 |
| 20260902183036 | 32 | 253 | 4.8 | 8.0 | 0.00 | 0.03 | 0.00 | 68 | 1018.3 |
| 20260902182017 | 32 | 227 | 6.4 | 11.3 | 0.00 | 0.03 | 0.00 | 68 | 1018.3 |
| 20260902181037 | 31 | 265 | 6.4 | 12.9 | 0.00 | 0.03 | 0.00 | 70 | 1018.4 |
| 20260902180017 | 31 | 208 | 4.8 | 11.3 | 0.00 | 0.03 | 0.00 | 71 | 1018.5 |
| 20260902175017 | 31 | 212 | 4.8 | 8.0 | 0.00 | 0.03 | 0.00 | 72 | 1018.6 |
| 20260902174022 | 31 | 209 | 6.4 | 9.7 | 0.00 | 0.03 | 0.00 | 73 | 1018.8 |
| 20260902173020 | 31 | 224 | 4.8 | 14.5 | 0.00 | 0.03 | 0.00 | 72 | 1019.0 |
| 20260902172018 | 30 | 249 | 3.2 | 8.0 | 0.00 | 0.03 | 0.00 | 74 | 1019.1 |
| 20260902171018 | 30 | 219 | 6.4 | 11.3 | 0.00 | 0.03 | 0.00 | 73 | 1019.1 |
| 20260902170038 | 30 | 206 | 6.4 | 12.9 | 0.00 | 0.03 | 0.00 | 73 | 1019.1 |
| 20260902164017 | 30 | 215 | 6.4 | 11.3 | 0.00 | 0.03 | 0.00 | 73 | 1019.3 |
| 20260902163016 | 30 | 218 | 6.4 | 11.3 | 0.00 | 0.03 | 0.00 | 75 | 1019.2 |
| 20260902162016 | 30 | 186 | 6.4 | 12.9 | 0.00 | 0.03 | 0.00 | 76 | 1019.2 |
| 20260902161056 | 29 | 191 | 8.0 | 12.9 | 0.00 | 0.03 | 0.00 | 75 | 1019.2 |
| 20260902160016 | 29 | 199 | 6.4 | 11.3 | 0.00 | 0.03 | 0.00 | 75 | 1019.2 |
| 20260902155016 | 29 | 197 | 6.4 | 11.3 | 0.00 | 0.03 | 0.00 | 75 | 1019.2 |
| 20260902154017 | 29 | 216 | 4.8 | 9.7 | 0.00 | 0.03 | 0.00 | 75 | 1019.2 |
| 20260902153019 | 29 | 232 | 3.2 | 8.0 | 0.00 | 0.03 | 0.00 | 75 | 1019.2 |
| 20260902152017 | 28 | 228 | 3.2 | 9.7 | 0.00 | 0.03 | 0.00 | 75 | 1019.2 |
| 20260902151017 | 28 | 200 | 4.8 | 12.9 | 0.00 | 0.03 | 0.00 | 76 | 1019.2 |
| 20260902150017 | 28 | 191 | 8.0 | 12.9 | 0.00 | 0.03 | 0.00 | 77 | 1019.2 |
| 20260902145017 | 27 | 200 | 6.4 | 9.7 | 0.00 | 0.03 | 0.00 | 78 | 1019.1 |
| 20260902144017 | 27 | 175 | 6.4 | 14.5 | 0.00 | 0.03 | 0.00 | 80 | 1019.0 |
| 20260902143038 | 27 | 197 | 6.4 | 12.9 | 0.00 | 0.08 | 0.00 | 79 | 1019.0 |
| 20260902142018 | 27 | 186 | 6.4 | 11.3 | 0.00 | 0.18 | 0.00 | 80 | 1019.0 |
| 20260902141018 | 27 | 194 | 6.4 | 9.7 | 0.00 | 0.25 | 0.00 | 80 | 1019.0 |
| 20260902140018 | 26 | 204 | 4.8 | 8.0 | 0.00 | 0.25 | 0.00 | 81 | 1019.0 |
| 20260902135015 | 26 | 201 | 4.8 | 9.7 | 0.00 | 0.33 | 0.00 | 83 | 1019.1 |
| 20260902134036 | 25 | 185 | 4.8 | 6.4 | 0.00 | 0.33 | 0.00 | 84 | 1019.1 |
| 20260902133036 | 25 | 187 | 4.8 | 9.7 | 0.00 | 0.33 | 0.00 | 85 | 1019.1 |
| 20260902132016 | 25 | 192 | 4.8 | 8.0 | 0.00 | 0.33 | 0.00 | 85 | 1019.1 |
| 20260902131016 | 25 | 185 | 4.8 | 6.4 | 0.00 | 0.33 | 0.00 | 85 | 1019.1 |
| 20260902130016 | 25 | 169 | 4.8 | 8.0 | 0.00 | 0.33 | 0.00 | 86 | 1019.0 |
| 20260902125016 | 25 | 179 | 6.4 | 11.3 | 0.00 | 0.33 | 0.00 | 87 | 1019.1 |
| 20260902124016 | 24 | 184 | 4.8 | 8.0 | 0.00 | 0.33 | 0.00 | 88 | 1018.9 |
| 20260902123017 | 24 | 179 | 4.8 | 11.3 | 0.00 | 0.33 | 0.00 | 88 | 1019.0 |
| 20260902122017 | 24 | 192 | 4.8 | 8.0 | 0.00 | 0.36 | 0.00 | 88 | 1018.9 |
| 20260902121017 | 23 | 180 | 6.4 | 11.3 | 0.00 | 0.36 | 0.00 | 89 | 1018.9 |
| 20260902120017 | 23 | 184 | 6.4 | 9.7 | 0.00 | 0.36 | 0.00 | 90 | 1019.0 |
| 20260902115017 | 23 | 185 | 4.8 | 8.0 | 0.00 | 0.36 | 0.00 | 90 | 1018.9 |
| 20260902114018 | 23 | 178 | 4.8 | 8.0 | 0.00 | 0.36 | 0.00 | 91 | 1018.8 |
| 20260902113017 | 22 | 177 | 4.8 | 8.0 | 0.00 | 0.36 | 0.00 | 91 | 1018.6 |
| 20260902112018 | 22 | 173 | 4.8 | 8.0 | 0.00 | 0.36 | 0.00 | 91 | 1018.5 |
| 20260902111018 | 22 | 163 | 4.8 | 6.4 | 0.00 | 0.36 | 0.00 | 91 | 1018.4 |
| 20260902110100 | 22 | 174 | 4.8 | 6.4 | 0.00 | 0.36 | 0.00 | 92 | 1018.4 |
| 20260902105015 | 22 | 172 | 4.8 | 6.4 | 0.00 | 0.36 | 0.00 | 92 | 1018.3 |
| 20260902104015 | 22 | 174 | 4.8 | 6.4 | 0.00 | 0.36 | 0.00 | 92 | 1018.3 |
| 20260902103016 | 22 | 172 | 3.2 | 6.4 | 0.00 | 0.36 | 0.00 | 92 | 1018.3 |
| 20260902102016 | 22 | 161 | 3.2 | 4.8 | 0.00 | 0.36 | 0.00 | 93 | 1018.3 |
| 20260902101016 | 22 | 156 | 1.6 | 4.8 | 0.00 | 0.36 | 0.00 | 92 | 1018.3 |
| 20260902100016 | 22 | 167 | 0.0 | 3.2 | 0.00 | 0.36 | 0.00 | 92 | 1018.3 |
| 20260902095016 | 22 | 154 | 0.0 | 1.6 | 0.00 | 0.36 | 0.00 | 92 | 1018.3 |
| 20260902094017 | 22 | 127 | 1.6 | 3.2 | 0.00 | 0.36 | 0.00 | 92 | 1018.3 |
| 20260902093016 | 22 | 160 | 1.6 | 3.2 | 0.00 | 0.36 | 0.00 | 92 | 1018.3 |
| 20260902092017 | 22 | 168 | 0.0 | 3.2 | 0.00 | 0.36 | 0.00 | 92 | 1018.3 |
| 20260902091037 | 22 | 150 | 0.0 | 1.6 | 0.00 | 0.36 | 0.00 | 92 | 1018.2 |
| 20260902090017 | 22 | 186 | 1.6 | 4.8 | 0.00 | 0.36 | 0.00 | 92 | 1018.2 |
| 20260902085017 | 22 | 163 | 1.6 | 4.8 | 0.00 | 0.36 | 0.00 | 92 | 1018.3 |
| 20260902084018 | 22 | 162 | 0.0 | 3.2 | 0.00 | 0.36 | 0.00 | 92 | 1018.3 |
| 20260902083038 | 22 | 144 | 0.0 | 3.2 | 0.00 | 0.36 | 0.00 | 92 | 1018.2 |
| 20260902082026 | 22 | 143 | 0.0 | 1.6 | 0.00 | 0.36 | 0.00 | 92 | 1018.2 |
| 20260902081015 | 23 | 179 | 0.0 | 1.6 | 0.00 | 0.36 | 0.00 | 91 | 1018.2 |
| 20260902080016 | 23 | 132 | 0.0 | 3.2 | 0.00 | 0.36 | 0.00 | 92 | 1018.2 |
| 20260902075036 | 23 | 138 | 1.6 | 3.2 | 0.00 | 0.36 | 0.00 | 92 | 1018.0 |
| 20260902074016 | 23 | 130 | 1.6 | 3.2 | 0.00 | 0.36 | 0.00 | 92 | 1018.0 |
| 20260902073016 | 22 | 119 | 1.6 | 3.2 | 0.00 | 0.36 | 0.00 | 92 | 1018.1 |
| 20260902072017 | 23 | 156 | 0.0 | 3.2 | 0.00 | 0.36 | 0.00 | 91 | 1018.1 |
| 20260902071017 | 23 | 120 | 1.6 | 3.2 | 0.00 | 0.36 | 0.00 | 91 | 1018.0 |
| 20260902070022 | 23 | 125 | 1.6 | 3.2 | 0.00 | 0.36 | 0.00 | 90 | 1018.1 |
| 20260902065018 | 23 | 155 | 1.6 | 3.2 | 0.00 | 0.36 | 0.00 | 90 | 1018.1 |
| 20260902064018 | 23 | 129 | 1.6 | 4.8 | 0.00 | 0.36 | 0.00 | 90 | 1018.1 |
| 20260902063017 | 23 | 134 | 3.2 | 4.8 | 0.00 | 0.36 | 0.00 | 90 | 1018.2 |
| 20260902062038 | 23 | 163 | 0.0 | 3.2 | 0.00 | 0.36 | 0.00 | 90 | 1018.3 |
| 20260902061018 | 23 | 154 | 0.0 | 3.2 | 0.00 | 0.36 | 0.00 | 90 | 1018.3 |